Location: Mentone
(34.5413°N, 85.5351°W)
Time: 18:11:45
(UTC-05:00)

AO-Echo - Visible Passes

Search period start: 30 June 2016 00:00
Search period end: 10 July 2016 00:00
Orbit: 694 x 810 km, 98.3° (Epoch: 29 June)

Date Brightness Start Highest point End Pass type
(mag) Time Alt. Az. Time Alt. Az. Time Alt. Az.
30 Jun ? 01:25:25 10° NE 01:29:00 26° E 01:29:00 26° E visible
30 Jun ? 03:03:57 10° N 03:08:28 30° WNW 03:08:56 30° W visible
01 Jul ? 02:23:01 10° N 02:27:59 74° NW 02:27:59 74° NW visible
02 Jul ? 01:42:53 10° NNE 01:47:02 39° ENE 01:47:02 39° ENE visible
02 Jul ? 03:22:25 10° NNW 03:26:10 20° WNW 03:26:58 20° W visible
03 Jul ? 01:04:00 10° NE 01:06:04 15° ENE 01:06:04 15° ENE visible
03 Jul ? 02:41:04 10° N 02:46:00 49° WNW 02:46:00 49° WNW visible
04 Jul ? 02:00:35 10° NNE 02:05:03 57° ENE 02:05:03 57° ENE visible
04 Jul ? 03:41:22 10° NW 03:43:49 14° WNW 03:44:59 13° WNW visible
05 Jul ? 01:20:59 10° NE 01:24:05 23° ENE 01:24:05 23° ENE visible
05 Jul ? 02:59:16 10° N 03:03:51 33° WNW 03:04:01 33° WNW visible
06 Jul ? 02:18:26 10° N 02:23:04 71° N 02:23:04 71° N visible
07 Jul ? 01:38:23 10° NNE 01:42:06 33° ENE 01:42:06 33° ENE visible
07 Jul ? 03:17:41 10° NNW 03:21:33 22° WNW 03:22:02 22° WNW visible
08 Jul ? 00:59:49 10° ENE 01:01:08 13° ENE 01:01:08 13° ENE visible
08 Jul ? 02:36:26 10° N 02:41:04 53° NW 02:41:04 53° NW visible
09 Jul ? 01:56:01 10° NNE 02:00:06 48° ENE 02:00:06 48° ENE visible
09 Jul ? 03:36:29 10° NNW 03:39:12 15° WNW 03:40:01 14° WNW visible
